Time,TemperatureF,DewpointF,PressureIn,WindDirection,WindDirectionDegrees,WindSpeedMPH,WindSpeedGustMPH,Humidity,HourlyPrecipIn,Conditions,Clouds,dailyrainin,SolarRadiationWatts/m^2,SoftwareType,DateUTC
2013-02-02 00:06:00,53.2,43.0,30.19,ESE,106,0.0,1.0,69,0.00,,,0.00,0,weatherlink.com 1.10,2013-02-02 08:06:00,
2013-02-02 00:21:00,53.7,44.0,30.19,ESE,106,0.0,1.0,71,0.00,,,0.00,0,weatherlink.com 1.10,2013-02-02 08:21:00,
2013-02-02 00:36:00,53.6,44.0,30.19,ESE,106,0.0,0.0,71,0.00,,,0.00,0,weatherlink.com 1.10,2013-02-02 08:36:00,
2013-02-02 00:51:00,53.2,44.0,30.19,ESE,106,0.0,1.0,72,0.00,,,0.00,0,weatherlink.com 1.10,2013-02-02 08:51:00,
2013-02-02 01:06:00,52.8,43.0,30.19,ESE,106,0.0,1.0,70,0.00,,,0.00,0,weatherlink.com 1.10,2013-02-02 09:06:00,
2013-02-02 01:21:00,52.1,43.0,30.19,ESE,106,0.0,0.0,71,0.00,,,0.00,0,weatherlink.com 1.10,2013-02-02 09:21:00,
2013-02-02 01:36:00,52.1,43.0,30.20,ESE,106,0.0,0.0,72,0.00,,,0.00,0,weatherlink.com 1.10,2013-02-02 09:36:00,
2013-02-02 01:51:00,52.5,44.0,30.20,ESE,106,0.0,2.0,73,0.00,,,0.00,0,weatherlink.com 1.10,2013-02-02 09:51:00,
2013-02-02 02:06:00,52.6,44.0,30.20,ESE,106,0.0,0.0,72,0.00,,,0.00,0,weatherlink.com 1.10,2013-02-02 10:06:00,
2013-02-02 02:21:00,52.3,44.0,30.20,ESE,106,1.0,3.0,73,0.00,,,0.00,0,weatherlink.com 1.10,2013-02-02 10:21:00,
2013-02-02 02:36:00,52.7,44.0,30.20,ESE,105,1.0,4.0,73,0.00,,,0.00,0,weatherlink.com 1.10,2013-02-02 10:36:00,
2013-02-02 02:51:00,53.4,44.0,30.20,ESE,105,0.0,2.0,71,0.00,,,0.00,0,weatherlink.com 1.10,2013-02-02 10:51:00,
2013-02-02 03:06:00,53.7,42.0,30.20,ESE,105,1.0,2.0,66,0.00,,,0.00,0,weatherlink.com 1.10,2013-02-02 11:06:00,
2013-02-02 03:21:00,53.7,42.0,30.20,ESE,105,0.0,1.0,66,0.00,,,0.00,0,weatherlink.com 1.10,2013-02-02 11:21:00,
2013-02-02 03:36:00,52.3,42.0,30.19,ESE,105,0.0,3.0,68,0.00,,,0.00,0,weatherlink.com 1.10,2013-02-02 11:36:00,
2013-02-02 03:51:00,49.5,42.0,30.19,ESE,105,0.0,2.0,74,0.00,,,0.00,0,weatherlink.com 1.10,2013-02-02 11:51:00,
2013-02-02 04:09:00,47.9,42.0,30.19,ESE,105,0.0,1.0,79,0.00,,,0.00,0,weatherlink.com 1.10,2013-02-02 12:09:00,
2013-02-02 04:21:00,47.3,41.0,30.19,ESE,105,0.0,0.0,80,0.00,,,0.00,0,weatherlink.com 1.10,2013-02-02 12:21:00,
2013-02-02 04:37:00,46.8,41.0,30.18,ESE,105,0.0,1.0,81,0.00,,,0.00,0,weatherlink.com 1.10,2013-02-02 12:37:00,
2013-02-02 04:51:00,47.2,42.0,30.18,ESE,105,0.0,0.0,81,0.00,,,0.00,0,weatherlink.com 1.10,2013-02-02 12:51:00,
2013-02-02 05:06:00,47.2,42.0,30.18,ESE,105,0.0,0.0,81,0.00,,,0.00,0,weatherlink.com 1.10,2013-02-02 13:06:00,
2013-02-02 05:21:00,47.0,42.0,30.18,ESE,105,0.0,1.0,83,0.00,,,0.00,0,weatherlink.com 1.10,2013-02-02 13:21:00,
2013-02-02 05:37:00,47.2,42.0,30.18,ESE,105,0.0,0.0,83,0.00,,,0.00,0,weatherlink.com 1.10,2013-02-02 13:37:00,
2013-02-02 05:51:00,46.6,42.0,30.18,ESE,105,0.0,0.0,85,0.00,,,0.00,0,weatherlink.com 1.10,2013-02-02 13:51:00,
2013-02-02 06:06:00,46.2,43.0,30.19,ESE,105,0.0,0.0,87,0.00,,,0.00,0,weatherlink.com 1.10,2013-02-02 14:06:00,
2013-02-02 06:21:00,46.0,42.0,30.20,ESE,105,0.0,0.0,87,0.00,,,0.00,0,weatherlink.com 1.10,2013-02-02 14:21:00,
2013-02-02 06:36:00,46.3,43.0,30.20,ESE,105,0.0,1.0,87,0.00,,,0.00,0,weatherlink.com 1.10,2013-02-02 14:36:00,
2013-02-02 06:52:00,46.9,43.0,30.21,ESE,105,0.0,1.0,85,0.00,,,0.00,0,weatherlink.com 1.10,2013-02-02 14:52:00,
2013-02-02 07:07:00,46.6,42.0,30.21,ESE,105,0.0,0.0,85,0.00,,,0.00,0,weatherlink.com 1.10,2013-02-02 15:07:00,
2013-02-02 07:22:00,45.8,42.0,30.22,ESE,105,0.0,1.0,87,0.00,,,0.00,0,weatherlink.com 1.10,2013-02-02 15:22:00,
2013-02-02 07:37:00,45.4,42.0,30.22,ESE,105,0.0,2.0,89,0.00,,,0.00,16,weatherlink.com 1.10,2013-02-02 15:37:00,
2013-02-02 07:52:00,46.4,43.0,30.23,ESE,105,0.0,0.0,88,0.00,,,0.00,30,weatherlink.com 1.10,2013-02-02 15:52:00,
2013-02-02 08:07:00,47.4,43.0,30.23,South,187,1.0,2.0,85,0.00,,,0.00,40,weatherlink.com 1.10,2013-02-02 16:07:00,
2013-02-02 08:22:00,49.3,43.0,30.24,SSW,192,0.0,1.0,80,0.00,,,0.00,63,weatherlink.com 1.10,2013-02-02 16:22:00,
2013-02-02 08:37:00,48.8,44.0,30.25,South,191,1.0,2.0,83,0.00,,,0.00,90,weatherlink.com 1.10,2013-02-02 16:37:00,
2013-02-02 08:52:00,48.3,44.0,30.25,South,191,0.0,1.0,86,0.00,,,0.00,135,weatherlink.com 1.10,2013-02-02 16:52:00,
2013-02-02 09:07:00,50.3,45.0,30.25,South,191,0.0,0.0,82,0.00,,,0.00,156,weatherlink.com 1.10,2013-02-02 17:07:00,
2013-02-02 09:22:00,51.7,45.0,30.25,South,191,0.0,0.0,79,0.00,,,0.00,160,weatherlink.com 1.10,2013-02-02 17:22:00,
2013-02-02 09:37:00,52.4,46.0,30.25,SW,232,0.0,0.0,78,0.00,,,0.00,160,weatherlink.com 1.10,2013-02-02 17:37:00,
2013-02-02 09:52:00,52.6,46.0,30.25,West,261,0.0,0.0,79,0.00,,,0.00,163,weatherlink.com 1.10,2013-02-02 17:52:00,
2013-02-02 10:07:00,53.2,47.0,30.24,West,261,0.0,1.0,79,0.00,,,0.00,269,weatherlink.com 1.10,2013-02-02 18:07:00,
2013-02-02 10:22:00,53.9,47.0,30.24,West,261,0.0,1.0,77,0.00,,,0.00,336,weatherlink.com 1.10,2013-02-02 18:22:00,
2013-02-02 10:37:00,53.8,47.0,30.25,NW,305,0.0,3.0,77,0.00,,,0.00,246,weatherlink.com 1.10,2013-02-02 18:37:00,
2013-02-02 10:52:00,53.2,47.0,30.25,NW,305,0.0,1.0,80,0.00,,,0.00,258,weatherlink.com 1.10,2013-02-02 18:52:00,
2013-02-02 11:08:00,52.7,48.0,30.25,West,264,0.0,3.0,83,0.00,,,0.00,297,weatherlink.com 1.10,2013-02-02 19:08:00,
2013-02-02 11:22:00,53.0,48.0,30.26,NNE,29,0.0,5.0,83,0.00,,,0.00,336,weatherlink.com 1.10,2013-02-02 19:22:00,
2013-02-02 11:37:00,53.7,48.0,30.25,NNE,29,0.0,3.0,82,0.00,,,0.00,287,weatherlink.com 1.10,2013-02-02 19:37:00,
2013-02-02 11:52:00,54.0,48.0,30.25,North,355,0.0,3.0,81,0.00,,,0.00,283,weatherlink.com 1.10,2013-02-02 19:52:00,
2013-02-02 12:07:00,53.3,48.0,30.24,NNE,30,0.0,4.0,83,0.00,,,0.00,308,weatherlink.com 1.10,2013-02-02 20:07:00,
2013-02-02 12:23:00,54.2,49.0,30.23,NE,40,4.0,4.0,82,0.00,,,0.00,362,weatherlink.com 1.10,2013-02-02 20:23:00,
2013-02-02 12:37:00,55.0,49.0,30.23,NNE,22,0.0,3.0,80,0.00,,,0.00,501,weatherlink.com 1.10,2013-02-02 20:37:00,
2013-02-02 12:52:00,54.9,49.0,30.22,NNW,330,0.0,3.0,81,0.00,,,0.00,381,weatherlink.com 1.10,2013-02-02 20:52:00,
2013-02-02 13:08:00,56.2,49.0,30.21,NW,310,2.0,4.0,78,0.00,,,0.00,415,weatherlink.com 1.10,2013-02-02 21:08:00,
2013-02-02 13:22:00,57.0,50.0,30.20,North,351,2.0,3.0,76,0.00,,,0.00,550,weatherlink.com 1.10,2013-02-02 21:22:00,
2013-02-02 13:37:00,57.2,50.0,30.20,North,360,2.0,3.0,76,0.00,,,0.00,388,weatherlink.com 1.10,2013-02-02 21:37:00,
2013-02-02 13:52:00,58.4,50.0,30.20,NNW,333,2.0,3.0,74,0.00,,,0.00,383,weatherlink.com 1.10,2013-02-02 21:52:00,
2013-02-02 14:07:00,58.0,50.0,30.20,NNW,331,1.0,3.0,75,0.00,,,0.00,369,weatherlink.com 1.10,2013-02-02 22:07:00,
2013-02-02 14:22:00,58.1,50.0,30.20,NW,320,0.0,3.0,75,0.00,,,0.00,336,weatherlink.com 1.10,2013-02-02 22:22:00,
2013-02-02 14:37:00,58.2,50.0,30.21,NW,324,2.0,4.0,75,0.00,,,0.00,267,weatherlink.com 1.10,2013-02-02 22:37:00,
2013-02-02 14:53:00,57.9,50.0,30.20,NNW,345,1.0,2.0,75,0.00,,,0.00,292,weatherlink.com 1.10,2013-02-02 22:53:00,
2013-02-02 15:08:00,56.9,50.0,30.20,NNE,28,0.0,4.0,77,0.00,,,0.00,186,weatherlink.com 1.10,2013-02-02 23:08:00,
2013-02-02 15:23:00,56.3,50.0,30.21,NNE,30,0.0,4.0,78,0.00,,,0.00,165,weatherlink.com 1.10,2013-02-02 23:23:00,
2013-02-02 15:38:00,56.5,50.0,30.21,NNE,30,0.0,2.0,78,0.00,,,0.00,151,weatherlink.com 1.10,2013-02-02 23:38:00,
2013-02-02 16:08:00,55.9,49.0,30.20,NNE,30,1.0,2.0,78,0.00,,,0.00,100,weatherlink.com 1.10,2013-02-03 00:08:00,
2013-02-02 16:23:00,54.9,49.0,30.20,NNE,30,0.0,3.0,80,0.00,,,0.00,69,weatherlink.com 1.10,2013-02-03 00:23:00,
2013-02-02 16:38:00,54.2,49.0,30.20,NNE,30,0.0,0.0,82,0.00,,,0.00,56,weatherlink.com 1.10,2013-02-03 00:38:00,
2013-02-02 16:53:00,52.7,48.0,30.20,NNE,30,0.0,1.0,85,0.00,,,0.00,47,weatherlink.com 1.10,2013-02-03 00:53:00,
2013-02-02 17:08:00,51.8,48.0,30.20,NNE,30,0.0,2.0,87,0.00,,,0.00,28,weatherlink.com 1.10,2013-02-03 01:08:00,
2013-02-02 17:23:00,51.3,48.0,30.20,NNE,30,0.0,0.0,88,0.00,,,0.00,9,weatherlink.com 1.10,2013-02-03 01:23:00,
2013-02-02 17:38:00,50.8,48.0,30.20,NNE,30,0.0,1.0,89,0.00,,,0.00,7,weatherlink.com 1.10,2013-02-03 01:38:00,
2013-02-02 17:53:00,50.3,48.0,30.20,NNE,30,0.0,0.0,90,0.00,,,0.00,0,weatherlink.com 1.10,2013-02-03 01:53:00,
2013-02-02 18:08:00,50.1,47.0,30.20,NNE,30,0.0,0.0,90,0.00,,,0.00,0,weatherlink.com 1.10,2013-02-03 02:08:00,
2013-02-02 18:23:00,49.4,47.0,30.21,NNE,30,0.0,0.0,90,0.00,,,0.00,0,weatherlink.com 1.10,2013-02-03 02:23:00,
2013-02-02 18:38:00,49.1,47.0,30.21,NNE,30,0.0,0.0,91,0.00,,,0.00,0,weatherlink.com 1.10,2013-02-03 02:38:00,
2013-02-02 18:53:00,48.6,46.0,30.21,NNE,30,0.0,0.0,91,0.00,,,0.00,0,weatherlink.com 1.10,2013-02-03 02:53:00,
2013-02-02 19:08:00,48.3,46.0,30.21,NNE,30,0.0,0.0,92,0.00,,,0.00,0,weatherlink.com 1.10,2013-02-03 03:08:00,
2013-02-02 19:23:00,47.7,46.0,30.21,NE,34,1.0,3.0,92,0.00,,,0.00,0,weatherlink.com 1.10,2013-02-03 03:23:00,
2013-02-02 19:38:00,47.8,46.0,30.21,ENE,76,0.0,2.0,93,0.00,,,0.00,0,weatherlink.com 1.10,2013-02-03 03:38:00,
2013-02-02 19:53:00,47.3,45.0,30.21,ENE,76,0.0,0.0,93,0.00,,,0.00,0,weatherlink.com 1.10,2013-02-03 03:53:00,
2013-02-02 20:08:00,47.1,46.0,30.21,ENE,76,0.0,0.0,94,0.00,,,0.00,0,weatherlink.com 1.10,2013-02-03 04:08:00,
2013-02-02 20:23:00,47.0,45.0,30.21,ENE,76,0.0,0.0,94,0.00,,,0.00,0,weatherlink.com 1.10,2013-02-03 04:23:00,
2013-02-02 20:38:00,46.6,45.0,30.21,ENE,76,0.0,0.0,94,0.00,,,0.00,0,weatherlink.com 1.10,2013-02-03 04:38:00,
2013-02-02 20:53:00,47.3,46.0,30.21,ENE,76,0.0,1.0,95,0.00,,,0.00,0,weatherlink.com 1.10,2013-02-03 04:53:00,
2013-02-02 21:08:00,47.3,46.0,30.21,ENE,76,0.0,1.0,95,0.00,,,0.00,0,weatherlink.com 1.10,2013-02-03 05:08:00,
2013-02-02 21:23:00,47.6,46.0,30.21,ENE,76,0.0,0.0,95,0.00,,,0.00,0,weatherlink.com 1.10,2013-02-03 05:23:00,
2013-02-02 21:38:00,47.7,46.0,30.21,ENE,76,0.0,2.0,95,0.00,,,0.00,0,weatherlink.com 1.10,2013-02-03 05:38:00,
2013-02-02 21:53:00,47.6,46.0,30.21,ENE,76,0.0,0.0,95,0.00,,,0.00,0,weatherlink.com 1.10,2013-02-03 05:53:00,
2013-02-02 22:08:00,47.5,46.0,30.22,ENE,76,0.0,3.0,95,0.00,,,0.00,0,weatherlink.com 1.10,2013-02-03 06:08:00,
2013-02-02 22:23:00,47.3,46.0,30.22,ENE,76,0.0,1.0,96,0.00,,,0.00,0,weatherlink.com 1.10,2013-02-03 06:23:00,
2013-02-02 22:38:00,46.9,46.0,30.21,ENE,76,0.0,3.0,95,0.00,,,0.00,0,weatherlink.com 1.10,2013-02-03 06:38:00,
2013-02-02 22:53:00,46.9,46.0,30.22,ENE,76,0.0,0.0,96,0.00,,,0.00,0,weatherlink.com 1.10,2013-02-03 06:53:00,
2013-02-02 23:08:00,46.8,46.0,30.22,ENE,76,0.0,1.0,96,0.00,,,0.00,0,weatherlink.com 1.10,2013-02-03 07:08:00,
2013-02-02 23:23:00,46.8,46.0,30.22,ENE,76,0.0,1.0,96,0.00,,,0.00,0,weatherlink.com 1.10,2013-02-03 07:23:00,
2013-02-02 23:38:00,46.7,46.0,30.22,ENE,76,0.0,1.0,96,0.00,,,0.00,0,weatherlink.com 1.10,2013-02-03 07:38:00,